Overview Statistics Trail Chart Weather Telemetry Raw packets
 

This is the latest recevied weather packets stored in our database for station/object SV9TNF-52. If no packets are shown the sender has not sent any weather packets the latest 10 day(s).

<< 23 24 25 26 27 28 29 >>
Time Temp. Humidity Pressure Rain* Wind** Luminosity Snow
1788498574 24.44° C 76% 1019.3 hPa 0 mm 4.47 m/s, 230° - -
1788498273 24.44° C 76% 1019.3 hPa 0 mm 4.02 m/s, 190° - -
1788497973 23.89° C 77% 1019 hPa 0 mm 4.02 m/s, 183° - -
1788497673 23.89° C 78% 1019 hPa 0 mm 4.92 m/s, 177° - -
1788497374 23.33° C 79% 1019 hPa 0 mm 1.34 m/s, 255° - -
1788497073 23.33° C 79% 1019 hPa 0 mm 4.47 m/s, 206° - -
1788496773 22.78° C 80% 1019 hPa 0 mm 4.02 m/s, 235° - -
1788496473 22.78° C 80% 1019 hPa 0 mm 4.92 m/s, 243° - -
1788496172 22.78° C 81% 1019 hPa 0 mm 3.13 m/s, 196° - -
1788495873 22.78° C 81% 1018.3 hPa 0 mm 4.92 m/s, 221° - -
1788495572 22.78° C 81% 1018.3 hPa 0 mm 4.47 m/s, 152° - -
1788495272 22.22° C 81% 1018.3 hPa 0 mm 5.81 m/s, 270° - -
1788494972 22.22° C 81% 1018 hPa 0 mm 3.58 m/s, 225° - -
1788494672 22.22° C 81% 1018 hPa 0 mm 5.81 m/s, 187° - -
1788494372 22.22° C 81% 1018.3 hPa 0 mm 4.47 m/s, 220° - -
1788494072 22.22° C 81% 1018.3 hPa 0 mm 4.02 m/s, 211° - -
1788493772 22.22° C 80% 1018.3 hPa 0 mm 4.92 m/s, 169° - -
1788493472 22.22° C 80% 1018.3 hPa 0 mm 7.6 m/s, 211° - -
1788493172 22.22° C 80% 1018.3 hPa 0 mm 4.47 m/s, 227° - -
1788492872 22.22° C 80% 1018.3 hPa 0 mm 5.81 m/s, 185° - -
1788492571 22.22° C 80% 1018.3 hPa 0 mm 4.92 m/s, 179° - -
1788492272 22.78° C 80% 1018.3 hPa 0 mm 7.6 m/s, 204° - -
1788491971 22.78° C 79% 1018.3 hPa 0 mm 7.15 m/s, 252° - -
1788491671 22.78° C 79% 1018.3 hPa 0 mm 6.71 m/s, 234° - -
1788491371 22.78° C 79% 1018.3 hPa 0 mm 4.92 m/s, 219° - -

* Rain latest hour (hover to see other rain measurements)
** Current wind speed in m/s (hover to see current wind gust speed)